This demonstration page uses our WeatherBlox Daily Observations layout. Learn more.

Left ArrowRight Arrow

34.74481, -87.66753

Hourly Observations for October 27, 2021

Temp ( °F °C ) Dew Point ( °F °C ) Humidity (%) Winds ( mph kmh ) Pressure ( in mb ) Visibility ( mi km ) Precip ( " mm )
12:53 am 00:53 Clear 53 11.7 44 6.7 72 72 ENE 3 6 29.96 1014 10 16 0.00 0.00
1:53 am 01:53 Clear 52 11.1 44 6.7 75 75 Calm 29.96 1015 10 16 0.00 0.00
2:53 am 02:53 Clear 51 10.6 43 6.1 74 74 SE 3 6 29.94 1014 10 16 0.00 0.00
3:53 am 03:53 Clear 52 11.1 43 6.1 72 72 E 7 11 29.91 1013 10 16 0.00 0.00
4:53 am 04:53 Clear 52 11.1 44 6.7 75 75 E 3 6 29.91 1013 10 16 0.00 0.00
5:53 am 05:53 Clear 50 10 44 6.7 80 80 Calm 29.94 1014 10 16 0.00 0.00
6:53 am 06:53 Clear 49 9.4 44 6.7 83 83 Calm 29.95 1014 10 16 0.00 0.00
7:53 am 07:53 Sunny 51 10.6 45 7.2 80 80 E 7 11 29.92 1013 10 16 0.00 0.00
8:53 am 08:53 Sunny 56 13.3 46 7.8 70 70 E 8 13 29.93 1014 10 16 0.00 0.00
9:53 am 09:53 Sunny 58 14.4 46 7.8 65 65 SE 5 7 29.93 1014 10 16 0.00 0.00
10:53 am 10:53 Sunny 61 16.1 45 7.2 56 56 ESE 8 13 29.93 1013 10 16 0.00 0.00
11:53 am 11:53 Sunny 65 18.3 44 6.7 47 47 E 7 11 29.89 1012 10 16 0.00 0.00
12:53 pm 12:53 Sunny 70 21.1 43 6.1 38 38 E 9 15 29.85 1011 10 16 0.00 0.00
1:53 pm 13:53 Sunny 72 22.2 42 5.6 34 34 E 9 15 29.81 1010 10 16 0.00 0.00
2:53 pm 14:53 Sunny 74 23.3 40 4.4 29 29 E 12 19 29.77 1008 10 16 0.00 0.00
3:53 pm 15:53 Sunny 74 23.3 42 5.6 32 32 ESE 10 17 29.74 1007 10 16 0.00 0.00
4:53 pm 16:53 Sunny 72 22.2 40 4.4 31 31 E 8 13 29.73 1007 10 16 0.00 0.00
5:53 pm 17:53 Sunny 67 19.4 44 6.7 44 44 E 7 11 29.71 1006 10 16 0.00 0.00
6:53 pm 18:53 Clear 66 18.9 44 6.7 45 45 E 10 17 29.68 1005 10 16 0.00 0.00
7:53 pm 19:53 Mostly Cloudy 66 18.9 44 6.7 45 45 ESE 9 15 29.69 1005 10 16 0.00 0.00
8:53 pm 20:53 Cloudy 66 18.9 43 6.1 43 43 ESE 10 17 29.67 1005 10 16 0.00 0.00
9:53 pm 21:53 Cloudy 66 18.9 43 6.1 43 43 SE 8 13 29.67 1005 10 16 0.00 0.00
10:53 pm 22:53 Cloudy 63 17.2 48 8.9 58 58 Calm 29.69 1005 10 16 0.00 0.00
11:53 pm 23:53 Mostly Cloudy with Rain 59 15 51 10.6 75 75 ESE 14 22 29.61 1003 6 10 0.11 2.79

Powered by AerisWeather